FW8074 Weather Reports


Display with metric or nautical units.
time (UTC)temp
F
wind
direction
speed
MPH
gust
MPH
rain 1hr
in
rain 24hr
in
rain mn
in
humidity
%
barometer
mb
20260507070138 67 0 0.0 0.0 0.00 0.01 0.01 97 1007.6
20260507064557 68 0 0.0 3.0 0.00 0.01 0.01 96 1008.1
20260507063101 68 0 0.0 1.0 0.00 0.01 0.01 96 1007.8
20260507061559 68 0 0.0 1.0 0.00 0.01 0.01 96 1008.0
20260507060100 68 0 0.0 1.0 0.00 0.01 0.01 95 1008.3
20260507054556 68 0 0.0 2.0 0.00 0.01 0.01 94 1008.8
20260507053058 69 0 0.0 1.0 0.00 0.01 0.01 94 1009.3
20260507051556 69 0 0.0 2.0 0.00 0.01 0.01 94 1009.5
20260507050056 69 0 0.0 2.0 0.01 0.01 0.01 93 1009.2
20260507044559 70 0 0.0 4.0 0.01 0.01 0.01 92 1010.0
20260507043055 70 269 2.0 8.0 0.01 0.01 0.01 91 1010.5
20260507041556 71 253 4.0 9.0 0.01 0.01 0.01 88 1010.4
20260507040055 74 263 6.0 11.0 0.00 0.00 0.00 82 1010.8
20260507034559 74 255 3.0 6.0 0.00 0.00 0.00 79 1010.2
20260507033055 74 0 0.0 0.0 0.00 0.00 0.00 80 1009.6
20260507031557 74 0 0.0 0.0 0.00 0.00 0.00 78 1009.3
20260507030106 73 0 0.0 0.0 0.00 0.00 0.00 79 1009.1
20260507024617 73 0 0.0 0.0 0.00 0.00 0.00 80 1009.1
20260507023055 72 0 0.0 0.0 0.00 0.00 0.00 81 1008.8
20260507021613 70 0 0.0 0.0 0.00 0.00 0.00 83 1008.8
20260507020105 70 0 0.0 0.0 0.00 0.00 0.00 83 1009.0
20260507014614 71 0 0.0 0.0 0.00 0.00 0.00 83 1008.7
20260507013057 71 0 0.0 0.0 0.00 0.00 0.00 81 1008.6
20260507011555 72 0 0.0 0.0 0.00 0.00 0.00 79 1008.7
20260507010109 73 0 0.0 0.0 0.00 0.00 0.00 78 1009.0
20260507004553 74 0 0.0 0.0 0.00 0.00 0.00 76 1008.8
20260507003054 75 0 0.0 0.0 0.00 0.00 0.00 74 1008.7
20260507001606 76 0 0.0 0.0 0.00 0.00 0.00 72 1008.8
20260507000059 78 0 0.0 0.0 0.00 0.00 0.00 71 1009.0
20260506234558 79 0 0.0 0.0 0.00 0.00 0.00 69 1009.0
20260506233059 79 243 1.0 3.0 0.00 0.00 0.00 67 1008.9
20260506231556 80 235 1.0 4.0 0.00 0.00 0.00 66 1009.0
20260506230103 80 237 2.0 4.0 0.00 0.00 0.00 66 1008.9
20260506224558 80 257 2.0 3.0 0.00 0.00 0.00 65 1009.1
20260506223055 80 248 2.0 4.0 0.00 0.00 0.00 65 1009.2
20260506221558 80 255 3.0 7.0 0.00 0.00 0.00 64 1009.3
20260506220057 81 240 3.0 6.0 0.00 0.00 0.00 63 1009.4
20260506214554 80 266 3.0 7.0 0.00 0.00 0.00 63 1009.3
20260506213054 80 260 5.0 10.0 0.00 0.00 0.00 63 1009.0
20260506211554 80 269 3.0 7.0 0.00 0.00 0.00 65 1009.3
20260506210055 80 253 2.0 6.0 0.00 0.00 0.00 64 1009.3
20260506204555 79 285 4.0 8.0 0.00 0.00 0.00 64 1009.4
20260506203059 80 249 3.0 6.0 0.00 0.00 0.00 65 1009.5
20260506201617 79 276 4.0 8.0 0.00 0.00 0.00 65 1009.6
20260506200055 79 245 1.0 7.0 0.00 0.00 0.00 66 1009.8
20260506194556 78 282 2.0 6.0 0.00 0.00 0.00 67 1009.8
20260506193056 78 253 1.0 3.0 0.00 0.00 0.00 67 1010.0
20260506191558 78 0 1.0 8.0 0.00 0.00 0.00 69 1010.2
20260506190054 77 261 1.0 3.0 0.00 0.00 0.00 69 1010.4
20260506184601 77 292 3.0 8.0 0.00 0.00 0.00 68 1011.6
20260506183055 77 248 3.0 8.0 0.00 0.00 0.00 68 1011.0
20260506181554 77 269 1.0 7.0 0.00 0.00 0.00 70 1011.1
20260506180056 76 212 3.0 7.0 0.00 0.00 0.00 70 1011.3
20260506174554 76 257 4.0 7.0 0.00 0.00 0.00 69 1011.9
20260506173113 76 282 4.0 9.0 0.00 0.00 0.00 69 1011.5
20260506171557 76 257 4.0 8.0 0.00 0.00 0.00 70 1011.9
20260506164555 76 265 5.0 10.0 0.00 0.00 0.00 69 1012.2
20260506163109 75 246 4.0 9.0 0.00 0.00 0.00 71 1012.3
20260506161600 75 280 3.0 8.0 0.00 0.00 0.00 71 1012.6
20260506160057 74 255 3.0 8.0 0.00 0.00 0.00 73 1012.2
20260506154602 74 265 5.0 8.0 0.00 0.00 0.00 72 1012.3
20260506153056 73 267 2.0 7.0 0.00 0.00 0.00 73 1012.3
20260506151559 73 246 2.0 6.0 0.00 0.00 0.00 73 1012.2
20260506150057 72 265 2.0 6.0 0.00 0.00 0.00 74 1012.3
20260506144559 70 174 2.0 7.0 0.00 0.00 0.00 76 1012.3
20260506143056 69 255 3.0 7.0 0.00 0.00 0.00 77 1012.3
20260506141557 69 257 3.0 6.0 0.00 0.00 0.00 77 1012.3
20260506134557 68 250 2.0 7.0 0.00 0.00 0.00 79 1012.6
20260506133101 67 267 4.0 7.0 0.00 0.00 0.00 81 1012.7
20260506131558 67 269 3.0 6.0 0.00 0.00 0.00 82 1012.5
20260506130057 66 273 2.0 6.0 0.00 0.00 0.00 83 1012.6
20260506124558 66 259 3.0 7.0 0.00 0.00 0.00 83 1012.2
20260506123054 66 255 3.0 6.0 0.00 0.00 0.00 83 1011.9
20260506121602 65 251 3.0 7.0 0.00 0.00 0.00 83 1012.0
20260506120110 64 245 3.0 7.0 0.00 0.00 0.00 83 1011.7
20260506114610 64 265 2.0 6.0 0.00 0.00 0.00 83 1011.6
20260506113054 63 259 2.0 6.0 0.00 0.00 0.00 84 1011.3
20260506111557 63 267 3.0 6.0 0.00 0.00 0.00 84 1011.3
20260506110054 63 251 3.0 4.0 0.00 0.00 0.00 84 1011.2
20260506104555 63 259 2.0 4.0 0.00 0.00 0.00 83 1011.2
20260506103055 63 248 2.0 4.0 0.00 0.00 0.00 82 1011.1
20260506101557 63 263 1.0 3.0 0.00 0.00 0.00 82 1011.2
20260506100054 64 248 2.0 4.0 0.00 0.00 0.00 81 1011.5
20260506094557 64 249 1.0 4.0 0.00 0.00 0.00 80 1011.3
20260506093111 64 247 2.0 4.0 0.00 0.00 0.00 80 1011.4
20260506091555 64 267 2.0 3.0 0.00 0.00 0.00 80 1011.7
20260506090121 64 263 1.0 4.0 0.00 0.00 0.00 80 1011.7
20260506084604 63 260 1.0 4.0 0.00 0.00 0.00 80 1012.0
20260506083101 63 240 2.0 4.0 0.00 0.00 0.00 80 1011.8
20260506081601 63 255 2.0 4.0 0.00 0.00 0.00 81 1011.7
20260506080112 63 0 0.0 0.0 0.00 0.00 0.00 81 1011.9
20260506073112 62 0 0.0 0.0 0.00 0.00 0.00 82 1011.7
20260506071557 62 0 0.0 0.0 0.00 0.00 0.00 83 1011.6